SCP
0 0 0 0 0 0 0 0 0 0 0 0 0 0 0 0 0 0 0 0 0 0 0 0 0 0 0 0 0 0 0 0 0 0 0 0 0 0 0 0 0 0 0
0 0 0 0 0 0 0 0 0 0 0 0 0 0 0 0 0 0 0 0 0 0 0 0 0 0 0 0 0 0 0 0 0 0 0 0 0 0 0 0 0 0 0
0 0 0 0 0 0 0 0 0 0 0 0 0 0 0 0 0 0 0 0 0 0 0 0 0 0 0 0 0 0 0 0 0 0 0 0 0 0 0 0 0 0 0
0 0 0 0 0 0 0 0 0 0 0 0 0 0 0 0 0 0 0 0 0 0 0 0 0 0 0 0 0 0 0 0 0 0 0 0 0 0 0 0 0 0 0
0 0 0 0 0 0 0 0 0 0 0 0 0 0 0 0 0 0 0 0 0 0 0 0 0 0 0 0 0 0 0 0 0 0 0 0 0 0 0 0 0 0 0
0 0 0 0 0 0 0 0 0 0 0 0 0 0 0 0 0 0 0 0 0 0 0 0 0 0 0 0 0 0 0 0 0 0 0 0 0 0 0 0 0 0 0
0 0 0 0 0 0 0 0 0 0 0 0 0 0 0 0 0 0 0 0 0 0 0 0 0 0 0 0 0 0 0 0 0 0 0 0 0 0 0 0 0 0 0
0 0 0 0 0 0 0 0 0 0 0 0 0 0 0 0 0 0 0 0 0 0 0 0 0 0 0 0 0 0 0 0 0 0 0 0 0 0 0 0 0 0 0
0 0 0 0 0 0 0 0 0 0 0 0 0 0 0 0 0 0 0 0 0 0 0 0 0 0 0 0 0 0 0 0 0 0 0 0 0 0 0 0 0 0 0
0 0 0 0 0 0 0 0 0 0 0 0 0 0 0 0 0 0 0 0 0 0 0 0 0 0 0 0 0 0 0 0 0 0 0 0 0 0 0 0 0 0 0
0 0 0 0 0 0 0 0 0 0 0 0 0 0 0 0 0 0 0 0 0 0 0 0 0 0 0 0 0 0 0 0 0 0 0 0 0 0 0 0 0 0 0
0 0 0 0 0 0 0 0 0 0 0 0 0 0 0 0 0 0 0 0 0 0 0 0 0 0 0 0 0 0 0 0 0 0 0 0 0 0 0 0 0 0 0
0 0 0 0 0 0 0 0 0 0 0 0 0 0 0 0 0 0 0 0 0 0 0 0 0 0 0 0 0 0 0 0 0 0 0 0 0 0 0 0 0 0 0
0 0 0 0 0 0 0 0 0 0 0 0 0 0 0 0 0 0 0 0 0 0 0 0 0 0 0 0 0 0 0 0 0 0 0 0 0 0 0 0 0 0 0
0 0 0 0 0 0 0 0 0 0 0 0 0 0 0 0 0 0 0 0 0 0 0 0 0 0 0 0 0 0 0 0 0 0 0 0 0 0 0 0 0 0 0
0 0 0 0 0 0 0 0 0 0 0 0 0 0 0 0 0 0 0 0 0 0 0 0 0 0 0 0 0 0 0 0 0 0 0 0 0 0 0 0 0 0 0
0 0 0 0 0 0 0 0 0 0 0 0 0 0 0 0 0 0 0 0 0 0 0 0 0 0 0 0 0 0 0 0 0 0 0 0 0 0 0 0 0 0 0
0 0 0 0 0 0 0 0 0 0 0 0 0 0 0 0 0 0 0 0 0 0 0 0 0 0 0 0 0 0 0 0 0 0 0 0 0 0 0 0 0 0 0
0 0 0 0 0 0 0 0 0 0 0 0 0 0 0 0 0 0 0 0 0 0 0 0 0 0 0 0 0 0 0 0 0 0 0 0 0 0 0 0 0 0 0
0 0 0 0 0 0 0 0 0 0 0 0 0 0 0 0 0 0 0 0 0 0 0 0 0 0 0 0 0 0 0 0 0 0 0 0 0 0 0 0 0 0 0
0 0 0 0 0 0 0 0 0 0 0 0 0 0 0 0 0 0 0 0 0 0 0 0 0 0 0 0 0 0 0 0 0 0 0 0 0 0 0 0 0 0 0
0 0 0 0 0 0 0 0 0 0 0 0 0 0 0 0 0 0 0 0 0 0 0 0 0 0 0 0 0 0 0 0 0 0 0 0 0 0 0 0 0 0 0
0 0 0 0 0 0 0 0 0 0 0 0 0 0 0 0 0 0 0 0 0 0 0 0 0 0 0 0 0 0 0 0 0 0 0 0 0 0 0 0 0 0 0
0 0 0 0 0 0 0 0 0 0 0 0 0 0 0 0 0 0 0 0 0 0 0 0 0 0 0 0 0 0 0 0 0 0 0 0 0 0 0 0 0 0 0
0 0 0 0 0 0 0 0 0 0 0 0 0 0 0 0 0 0 0 0 0 0 0 0 0 0 0 0 0 0 0 0 0 0 0 0 0 0 0 0 0 0 0
0 0 0 0 0 0 0 0 0 0 0 0 0 0 0 0 0 0 0 0 0 0 0 0 0 0 0 0 0 0 0 0 0 0 0 0 0 0 0 0 0 0 0
Wind_Speed
7 6 7 7 7 7 8 7 6 5 4 3 2 2 2 1 1 1 1 1 2 2 2 2 3 3 3 4 4 4 4 4 3 4 5 6 9 11 11 10 9 10 10
7 7 7 6 7 7 7 7 6 6 5 3 3 2 2 1 1 0 1 1 2 2 2 3 3 3 3 4 5 4 3 4 3 2 3 5 5 6 8 7 8 9 7
9 8 7 7 7 6 6 6 6 6 5 4 3 2 2 1 1 0 0 1 1 2 2 3 3 3 3 4 5 5 5 5 4 4 4 4 5 5 4 6 5 5 5
9 8 8 7 6 6 6 7 7 6 5 4 4 3 2 1 1 1 1 1 1 1 1 2 3 3 3 4 5 5 4 5 5 4 5 7 6 5 6 4 4 6 6
9 8 8 8 7 6 5 6 6 6 5 4 4 3 2 1 1 2 1 1 1 1 1 1 2 3 3 4 5 5 5 4 5 5 5 6 6 8 9 10 6 6 7
10 9 8 8 6 5 5 5 6 5 4 4 4 4 3 2 2 2 2 2 1 1 1 1 2 3 3 4 5 5 6 6 6 6 5 6 6 6 7 10 9 9 7
10 9 9 8 7 6 5 5 6 5 4 4 3 3 3 2 1 1 2 2 2 2 2 1 2 3 4 5 5 5 6 6 7 7 6 6 7 7 7 10 12 12 8
10 10 9 8 8 7 6 5 5 5 4 3 2 2 2 1 1 1 1 2 2 2 3 3 4 5 5 5 5 5 6 6 7 9 8 7 7 7 7 8 10 14 12
11 10 9 8 8 7 6 5 5 5 3 3 2 2 2 1 1 2 2 2 2 3 4 4 5 6 6 6 6 5 7 6 7 7 8 8 7 7 7 7 7 11 17
11 10 9 8 7 6 5 5 5 4 3 2 2 1 1 1 1 2 3 4 4 4 5 5 6 6 6 7 6 6 7 7 7 6 8 8 7 6 6 7 7 8 12
11 10 9 8 8 7 6 5 4 4 3 2 1 1 1 1 2 3 4 4 4 5 5 6 6 7 7 7 7 7 7 8 8 8 8 9 8 7 6 6 7 8 8
10 9 9 8 7 7 6 5 4 4 2 1 1 1 2 2 3 4 4 4 5 5 6 7 7 8 8 7 7 8 8 8 9 8 8 9 9 9 8 7 8 8 8
9 9 8 7 7 6 5 5 4 3 2 1 1 2 3 3 4 4 5 5 6 6 7 7 8 8 8 8 8 8 9 9 9 9 9 10 10 12 10 10 10 9 10
8 8 7 7 6 6 5 4 4 3 2 0 2 3 3 3 4 5 5 6 6 7 8 8 8 9 9 9 9 9 9 9 10 10 11 11 12 13 13 12 12 11 11
8 7 7 6 6 5 4 4 3 2 1 1 2 3 4 4 4 5 6 7 7 8 8 9 9 9 8 8 9 8 9 10 10 10 11 12 17 22 19 15 11 10 11
8 8 7 7 6 5 4 3 2 1 1 2 3 4 4 4 5 6 6 7 8 8 9 9 9 9 9 17 23 18 10 9 9 10 10 12 16 20 25 27 26 21 14
8 8 7 6 5 5 4 2 1 1 1 3 4 4 5 5 6 6 7 8 8 8 9 9 9 9 11 21 25 24 15 10 9 10 10 12 13 19 12 18 25 23 26
8 7 6 5 5 4 3 1 1 2 3 4 5 5 5 6 6 7 8 8 8 8 8 9 9 9 12 23 25 25 15 10 10 11 12 13 12 13 16 13 12 13 14
7 7 6 5 4 3 2 1 2 3 4 5 5 5 5 6 7 8 8 8 8 8 8 8 9 10 12 21 25 25 10 9 11 11 12 14 12 20 27 18 14 14 12
7 6 5 4 3 2 2 1 3 4 5 5 5 5 5 6 8 8 9 8 8 9 9 9 9 10 10 19 24 25 9 9 10 9 10 18 20 25 27 17 13 15 13
7 5 4 2 2 1 1 2 4 5 6 5 5 6 6 7 8 8 7 8 8 9 9 10 9 9 12 18 23 24 12 9 10 10 9 9 23 27 28 25 15 18 19
5 4 2 1 1 1 2 4 5 6 5 5 6 7 7 7 7 8 8 8 8 9 9 9 10 7 9 15 19 25 24 22 14 11 9 12 25 28 29 22 21 27 23
4 3 2 1 2 3 3 5 6 6 6 6 7 7 8 7 7 8 8 8 7 7 8 8 10 9 7 10 22 25 26 26 17 12 21 26 29 27 19 21 25 20 9
3 2 1 2 3 4 4 5 6 6 6 7 7 7 7 8 7 6 6 6 6 7 8 9 10 11 9 7 7 9 12 17 16 13 18 25 25 20 19 17 13 7 7
2 1 2 3 5 5 5 6 6 6 7 7 7 7 7 8 8 7 6 8 7 9 12 9 9 11 12 13 23 19 12 11 12 16 11 9 8 8 7 7 6 6 6
1 1 3 4 5 6 6 7 6 6 7 7 7 6 6 6 7 8 9 12 15 21 23 23 21 16 21 28 28 28 28 28 27 19 10 9 8 8 7 7 7 6 6
Wind_Direction
111 102 98 91 85 87 96 103 108 108 106 102 109 117 136 154 150 168 214 233 230 234 235 241 251 254 253 251 249 251 261 267 269 284 289 274 256 253 253 250 249 246 242
123 113 103 97 95 95 98 102 103 101 95 98 101 104 108 107 108 129 196 245 243 236 227 228 236 242 251 261 257 251 259 264 249 249 300 305 303 268 255 249 243 244 240
138 127 111 99 92 91 97 100 99 96 95 97 93 80 67 49 66 355 246 251 244 246 236 236 238 244 240 248 251 244 243 254 250 214 218 261 275 311 296 292 284 268 253
135 131 123 113 105 102 99 100 101 98 98 98 95 104 105 104 136 142 186 246 214 216 236 245 251 254 253 254 253 246 239 242 253 248 228 231 236 270 293 277 283 297 287
139 134 128 125 117 111 109 110 106 102 99 96 96 86 68 49 41 28 24 349 312 190 229 248 264 265 260 259 260 262 253 240 241 241 242 250 251 244 262 278 268 259 255
141 135 130 126 122 121 118 118 113 109 104 97 94 87 73 40 28 15 8 343 328 318 294 264 269 270 267 265 262 258 257 252 251 248 241 239 241 246 252 269 274 272 262
150 149 149 146 142 142 138 129 120 115 105 94 87 91 85 52 39 20 355 336 328 324 316 321 287 277 267 264 261 259 257 253 253 251 251 247 247 245 252 266 276 278 273
160 160 160 153 150 151 147 134 123 115 104 96 85 84 85 68 31 7 332 313 300 293 300 300 286 280 277 273 267 261 257 255 252 255 254 253 252 249 248 256 273 283 281
163 161 159 155 153 153 149 138 129 119 110 100 83 59 51 43 357 326 310 295 287 286 291 290 285 282 280 276 273 264 262 260 256 256 256 256 255 251 251 251 250 269 284
162 160 159 155 151 147 141 131 127 126 121 104 93 72 358 349 324 306 295 290 291 294 293 288 285 284 283 281 278 275 270 270 266 261 263 263 263 259 254 253 255 252 267
165 161 156 151 145 143 146 142 135 123 113 96 74 6 324 323 313 299 293 293 293 295 293 291 290 288 285 284 283 281 283 283 282 282 280 276 275 272 268 265 263 261 261
156 151 148 145 146 150 148 143 136 125 119 100 20 316 309 304 298 294 296 302 302 300 295 293 290 288 288 287 286 287 288 286 287 288 290 290 293 287 283 278 273 271 266
142 142 143 146 147 147 145 142 134 125 117 95 321 308 306 305 301 301 306 308 302 296 293 292 290 289 287 285 281 279 279 277 278 281 283 285 287 285 282 278 276 274 275
142 143 145 146 143 142 140 132 125 123 124 217 284 292 294 297 300 302 301 297 293 292 290 287 284 282 281 280 279 277 274 273 272 271 272 274 274 275 275 274 271 270 270
144 145 146 140 136 133 128 123 125 137 156 264 278 275 280 289 292 292 292 290 288 286 283 282 281 279 280 279 278 274 269 268 269 270 269 271 277 278 280 279 272 265 265
149 144 138 134 135 135 132 133 159 184 202 263 271 274 279 282 283 285 286 287 285 283 281 280 279 280 283 293 297 297 286 276 276 280 278 279 284 284 285 286 287 284 279
144 141 136 133 130 129 130 152 185 220 257 265 269 272 273 277 279 282 285 284 283 282 282 281 280 281 285 296 300 300 298 286 283 283 284 286 284 290 282 283 285 285 283
136 134 130 125 122 123 138 156 214 262 265 268 271 272 273 276 278 280 280 280 279 281 282 284 284 285 290 300 302 303 299 286 282 280 280 281 280 279 283 276 271 267 268
119 119 120 125 130 145 158 174 259 270 272 273 274 276 278 279 281 281 280 281 283 285 284 284 286 287 292 300 303 303 292 286 283 281 281 285 284 287 292 290 282 279 274
103 109 112 119 138 163 153 220 267 276 277 276 278 282 282 281 281 279 280 282 283 283 284 284 284 286 290 300 304 304 294 289 287 283 279 286 289 292 294 290 284 283 282
113 117 125 140 170 172 188 256 269 271 272 278 282 283 280 278 278 279 280 282 283 285 285 287 286 286 291 301 304 304 300 291 291 291 290 284 293 295 295 294 287 284 287
128 133 140 175 211 233 250 264 268 270 278 284 283 281 279 280 284 282 282 281 284 288 289 291 291 284 288 295 299 301 302 302 298 295 291 288 295 296 297 297 291 293 296
142 143 161 225 262 264 257 265 270 277 283 283 281 280 281 279 279 280 284 285 284 284 288 289 291 292 285 288 297 301 302 301 299 291 295 298 300 301 299 294 295 297 293
147 151 191 258 271 273 272 268 276 281 282 282 282 282 283 283 281 280 279 282 283 284 286 289 292 293 291 285 285 283 292 295 295 293 292 296 296 295 292 293 294 285 275
152 173 232 260 271 279 282 281 282 285 283 280 279 281 280 282 284 280 275 282 273 280 291 290 288 294 296 293 300 303 300 296 292 300 295 290 290 286 284 284 283 281 282
176 236 258 268 277 284 284 283 283 282 281 282 281 280 281 282 282 287 289 282 283 293 294 294 295 294 295 302 306 307 306 307 307 307 298 296 294 293 294 294 293 289 285